Regional Weather Roundup
Issued by NWS

Home | Current Version | Previous Version | Graphics & Text | Print | Product List | Glossary On
Versions: 1 2 3 4 5 6 7 8 9 10 11 12 13 14 15 16 17 18 19 20 21 22 23 24 25 26 27 28 29 30 31 32 33 34 35 36 37 38 39 40 41 42 43 44 45 46 47 48 49 50
000
ASUS45 KTFX 290310
RWRMT
MONTANA REGIONAL WEATHER ROUNDUP
NATIONAL WEATHER SERVICE GREAT FALLS MT
900 PM MDT TUE JUL 28 2015

NOTE: "FAIR" INDICATES FEW OR NO CLOUDS BELOW 12000 FEET WITH NO
SIGNIFICANT WEATHER AND/OR OBSTRUCTIONS TO VISIBILITY.

MTZ001>007-043-290400-
WEST OF THE DIVIDE

CITY           SKY/WX    TMP DP  RH WIND       PRES   REMARKS
KALISPELL      PTCLDY    68  41  37 W7        30.19R
MISSOULA       CLEAR     65  42  43 NW9       30.22R
BUTTE          CLEAR     59  34  39 W7        30.30R
MULLAN PASS    CLEAR     54  37  52 VRB3      30.34R
DEER LODGE       N/A     59  37  44 CALM      30.30S
EUREKA           N/A     72  45  37 SW8       30.16R
HAMILTON         N/A     66  37  34 W3        30.24R
LIBBY            N/A     70  45  40 CALM      30.19S
PLAINS           N/A     70  44  38 CALM      30.20R
RONAN            N/A     68  45  43 W1        30.24R
$$

MTZ008-052>055-290400-
SOUTHWEST MONTANA

CITY           SKY/WX    TMP DP  RH WIND       PRES   REMARKS
BOZEMAN        CLEAR     62  39  42 SW7       30.24S
DILLON         CLEAR     55  40  56 SW7       30.28S
W YELLOWSTONE  CLEAR     48  39  71 SW3       30.37S
TWIN BRIDGES     N/A     60  42  51 E3        30.23S
$$

MTZ009-010-012-014-046-048-049-054-290400-
EAST SLOPES AND CENTRAL MONTANA

CITY           SKY/WX    TMP DP  RH WIND       PRES   REMARKS
CUT BANK       CLEAR     63  37  38 W13       30.13S
GREAT FALLS    PTCLDY    65  37  35 W8        30.14R
HELENA         CLEAR     67  33  28 W9        30.20R
CONRAD           N/A     66  43  43 MISG      30.16R
$$

MTZ011-013-016-021-045-047-050-051-290400-
NORTH CENTRAL MONTANA

CITY           SKY/WX    TMP DP  RH WIND       PRES   REMARKS
HAVRE          PTCLDY    66  51  58 W8        30.03R
LEWISTOWN      PTCLDY    65  40  39 W9        30.15S
CHINOOK          N/A     64  48  55 W6        30.03R
FORT BENTON      N/A     64  39  39 W6        30.10R
$$

MTZ017>020-022>027-061-062-290400-
NORTHEAST MONTANA

CITY           SKY/WX    TMP DP  RH WIND       PRES   REMARKS
GLASGOW        MOCLDY    60  50  69 W7        29.97R
JORDAN           N/A     66  44  45 W9        30.04R
SIDNEY         CLOUDY    57  50  77 W8        29.93R
WOLF POINT     CLOUDY    66  48  52 W12       29.95R
PLENTYWOOD       N/A     57  54  88 W16G22    29.86R
POPLAR           N/A     63  52  67 NW7G17    29.95R
SCOBEY           N/A     55  49  80 W6        29.92R
$$

MTZ028>42-056>058-290400-
SOUTHCENTRAL AND SOUTHEAST MONTANA

CITY           SKY/WX    TMP DP  RH WIND       PRES   REMARKS
BAKER          PTCLDY    64  37  36 W13       30.05R
BILLINGS       PTCLDY    68  35  29 W17G23    30.17R
LIVINGSTON     CLEAR     62  35  36 SW12      30.23S
MILES CITY     PTCLDY    66  40  38 W10       30.07R
EKALAKA          N/A     62  32  32 W10       30.08R
FORSYTH          N/A     68  37  32 W3        30.10R
LAUREL           N/A     67  32  27 W10       30.16R
ROUNDUP          N/A     66  38  35 CALM      30.05R
$$

REGIONAL REPORTS...DAKOTAS

CITY           SKY/WX    TMP DP  RH WIND       PRES   REMARKS
WILLISTON      CLOUDY    58  51  78 W20G30    29.88R
MINOT          LGT RAIN  59  53  80 W37G55    29.60R
DICKINSON      PTCLDY    62  44  51 W14       29.93R
BEACH          FAIR      63  43  48 W17G23    30.01R
CROSBY         MOCLDY    57  54  88 NW30G45   29.77R
BISMARCK       PTCLDY    65  45  48 W29G48    29.87R
GRAND FORKS    MOCLDY    68  50  52 SW26G39   29.58F
FARGO          CLEAR     70  49  47 SW22G29   29.75S
BUFFALO SD       N/A     62  38  40 W15       30.02R
RAPID CITY     CLEAR     63  45  51 N14       30.13R
$$

REGIONAL REPORTS...WYOMING/IDAHO/WASHINGTON

CITY           SKY/WX    TMP DP  RH WIND       PRES   REMARKS
GILLETTE       CLEAR     59  34  39 NW8       30.20R
SHERIDAN       CLEAR     57  39  51 SW7       30.20R
BUFFALO WY     CLEAR     59  36  42 NW10      30.26R
CODY           CLEAR     63  30  29 W9        30.27R
YELLOWSTONE LA   N/A     43  34  70 CALM      30.45R
IDAHO FALLS    CLEAR     65  33  30 E6        30.29R
SALMON         CLEAR     63  43  48 CALM      30.24R
BOISE          CLEAR     76  36  23 NW6       30.17S
SPOKANE        PTCLDY    76  36  23 S7        30.17R
$$

REGIONAL REPORTS...ALBERTA

CITY           SKY/WX    TMP DP  RH WIND       PRES   REMARKS
EDMONTON       PTCLDY    66  48  52 NW6       29.96R
LETHBRIDGE     PTCLDY    66  43  42 W15       30.07R
MEDICINE HAT   MOCLDY    72  43  35 NW10      30.01R
WATERTON GATE    N/A     61  39  44 SW14G23     N/A
CARDSTON         N/A     64  39  39 W8          N/A
MILK RIVER       N/A     64  41  42 W12         N/A
ONEFOUR          N/A     61  46  59 NW9         N/A
$$

REGIONAL REPORTS...SASKATCHEWAN

CITY           SKY/WX    TMP DP  RH WIND       PRES   REMARKS
SWIFT CURRENT  PTCLDY    61  52  72 W9        29.92R
REGINA         LGT RAIN  55  55 100 W15G25    29.76R
SASKATOON      MOCLDY    61  57  88 NW8       29.81R
CYPRESS HILLS    N/A     57  37  47 NW7         N/A
VAL MARIE        N/A     57  48  72 W10         N/A
ROCKGLEN         N/A     57  52  82 W12G17      N/A
ASSINIBOIA       N/A     64  52  63 W7          N/A
$$



USA.gov is the U.S. government's official web portal to all federal, state and local government web resources and services.